Total_Precipitation_Accumulation
1.27 1.50 1.73 2.13 2.39 2.71 3.07 3.23 3.53 3.78 3.99 4.22 4.29 4.09 3.82 3.63 3.49 3.49 3.39 3.17 3.00 2.91 2.75 2.56 2.57 2.50 2.28 2.04 2.04 2.06 1.85 1.66 1.61 1.57 1.35 1.17 1.04 0.98 0.90 0.92 0.90 0.81 0.74
1.13 1.30 1.56 1.94 2.16 2.37 2.61 2.85 3.11 3.42 3.65 3.77 3.87 4.00 4.02 3.78 3.52 3.47 3.50 3.44 3.30 3.13 2.93 2.75 2.66 2.63 2.57 2.32 2.14 2.20 2.13 1.95 1.89 1.91 1.86 1.65 1.44 1.14 0.96 0.93 0.92 0.89 0.88
1.04 1.16 1.37 1.76 1.99 2.11 2.33 2.55 2.80 3.01 3.17 3.54 3.86 4.00 4.28 4.20 3.77 3.41 3.24 3.36 3.43 3.38 3.15 2.92 2.86 2.78 2.77 2.67 2.47 2.35 2.31 2.24 2.12 2.10 2.28 2.07 1.71 1.32 1.10 1.02 0.98 0.94 0.97
1.05 1.14 1.24 1.48 1.72 1.83 2.04 2.33 2.64 2.88 2.96 3.28 3.56 3.60 3.61 3.71 3.48 3.26 3.23 3.34 3.41 3.46 3.41 3.21 3.00 2.89 2.84 2.79 2.84 2.83 2.68 2.55 2.35 2.18 2.04 1.96 1.77 1.69 1.46 1.19 1.14 1.09 1.02
0.98 1.12 1.20 1.29 1.49 1.63 1.75 2.02 2.41 2.72 2.89 3.01 3.23 3.45 3.49 3.50 3.59 3.53 3.39 3.31 3.26 3.32 3.45 3.38 3.18 2.88 2.70 2.61 2.68 2.78 2.84 2.71 2.47 2.29 2.14 2.00 1.76 1.65 1.68 1.48 1.30 1.28 1.14
0.97 1.04 1.08 1.14 1.33 1.44 1.50 1.73 2.02 2.45 2.84 2.98 3.05 3.15 3.23 3.21 3.32 3.48 3.45 3.36 3.23 3.18 3.25 3.27 3.16 2.97 2.74 2.56 2.56 2.69 2.78 2.82 2.73 2.50 2.28 2.16 1.99 1.72 1.71 1.65 1.48 1.49 1.36
0.97 1.01 1.05 1.14 1.22 1.33 1.37 1.51 1.68 2.03 2.46 2.73 2.78 2.85 2.94 2.98 2.97 3.15 3.32 3.33 3.20 3.05 3.13 3.26 3.16 3.03 2.82 2.69 2.59 2.60 2.59 2.62 2.66 2.60 2.41 2.19 2.01 1.85 1.90 1.93 1.80 1.68 1.53
0.90 0.93 0.95 1.01 1.03 1.10 1.21 1.36 1.47 1.64 1.92 2.21 2.39 2.54 2.66 2.73 2.67 2.69 2.96 3.10 3.01 2.94 2.96 3.14 3.17 3.09 2.95 2.82 2.69 2.58 2.49 2.47 2.46 2.40 2.32 2.19 1.98 1.88 1.91 2.03 2.19 2.17 1.84
0.77 0.79 0.80 0.84 0.86 0.90 1.00 1.14 1.22 1.32 1.51 1.78 2.04 2.24 2.35 2.50 2.56 2.49 2.59 2.86 2.90 2.77 2.75 2.85 2.93 2.94 2.90 2.85 2.76 2.64 2.44 2.34 2.30 2.21 2.12 2.07 1.94 1.84 1.82 1.90 2.11 2.47 2.39
0.67 0.70 0.73 0.78 0.81 0.85 0.81 0.86 1.02 1.19 1.33 1.46 1.74 1.96 2.12 2.24 2.35 2.44 2.44 2.51 2.61 2.61 2.53 2.55 2.63 2.70 2.68 2.68 2.73 2.62 2.45 2.38 2.25 2.13 2.06 1.98 1.90 1.88 1.88 1.93 2.00 2.17 2.34
0.66 0.68 0.69 0.73 0.81 0.85 0.78 0.75 0.86 1.03 1.17 1.24 1.45 1.64 1.80 1.98 2.11 2.21 2.25 2.28 2.34 2.43 2.48 2.43 2.47 2.55 2.59 2.56 2.58 2.59 2.49 2.37 2.24 2.12 2.03 1.94 1.85 1.88 1.86 1.90 1.97 2.02 2.10
0.70 0.69 0.68 0.70 0.78 0.87 0.86 0.80 0.83 0.90 1.04 1.13 1.24 1.47 1.58 1.73 1.89 2.01 2.05 2.06 2.11 2.16 2.21 2.25 2.30 2.31 2.36 2.40 2.42 2.41 2.39 2.36 2.25 2.16 2.12 2.02 1.97 2.05 2.04 2.06 2.05 2.01 1.98
0.73 0.71 0.71 0.73 0.78 0.86 0.91 0.84 0.83 0.86 0.93 1.07 1.11 1.27 1.44 1.55 1.63 1.74 1.85 1.90 1.94 2.02 2.08 2.08 2.16 2.19 2.16 2.21 2.26 2.27 2.29 2.30 2.26 2.22 2.21 2.14 2.14 2.18 2.14 2.09 2.05 1.97 1.91
0.72 0.74 0.80 0.82 0.84 0.86 0.91 0.86 0.86 0.85 0.86 0.99 1.07 1.11 1.29 1.42 1.49 1.54 1.63 1.71 1.73 1.80 1.86 1.90 1.92 1.98 2.01 2.06 2.14 2.22 2.24 2.25 2.25 2.23 2.20 2.14 2.12 2.10 2.05 2.00 1.93 1.91 1.96
0.66 0.70 0.76 0.82 0.86 0.87 0.93 0.93 0.90 0.90 0.86 0.91 1.02 1.08 1.15 1.24 1.37 1.47 1.55 1.65 1.68 1.71 1.75 1.78 1.82 1.83 1.87 1.95 2.05 2.16 2.24 2.26 2.27 2.26 2.19 2.07 2.03 1.97 1.95 1.93 1.88 1.90 2.03
0.65 0.66 0.66 0.73 0.77 0.87 0.95 1.00 0.99 0.96 0.93 0.91 0.94 1.03 1.12 1.17 1.24 1.34 1.46 1.55 1.67 1.72 1.75 1.82 1.86 1.88 1.92 2.16 2.27 2.24 2.23 2.22 2.18 2.09 1.97 1.90 1.91 1.85 1.91 1.94 1.93 2.01 2.17
0.58 0.60 0.63 0.70 0.74 0.81 0.90 0.98 1.02 0.99 0.97 0.96 0.94 0.98 1.07 1.18 1.25 1.29 1.38 1.54 1.67 1.84 1.93 1.96 2.03 2.04 2.06 2.15 2.05 2.09 2.07 2.09 2.06 1.96 1.83 1.75 1.65 1.66 1.54 1.68 1.83 1.88 1.98
0.53 0.54 0.57 0.60 0.63 0.68 0.77 0.89 0.94 0.97 0.98 0.99 1.02 1.04 1.07 1.19 1.31 1.35 1.41 1.53 1.65 1.82 1.97 2.03 2.07 2.06 2.06 2.08 1.96 1.94 1.77 1.74 1.77 1.76 1.73 1.67 1.61 1.56 1.56 1.61 1.70 1.60 1.55
0.59 0.58 0.58 0.61 0.59 0.63 0.72 0.83 0.90 0.91 0.94 0.99 1.05 1.10 1.13 1.25 1.37 1.40 1.44 1.52 1.60 1.68 1.76 1.84 1.87 1.84 1.84 1.87 1.79 1.81 1.68 1.62 1.56 1.51 1.54 1.59 1.53 1.65 1.80 1.77 1.72 1.53 1.37
0.53 0.58 0.60 0.58 0.61 0.65 0.70 0.79 0.91 1.00 1.06 1.09 1.15 1.19 1.27 1.40 1.47 1.48 1.48 1.48 1.50 1.52 1.49 1.51 1.49 1.48 1.49 1.60 1.60 1.63 1.54 1.53 1.46 1.43 1.46 1.61 1.56 1.69 1.83 1.73 1.71 1.61 1.38
0.52 0.54 0.58 0.61 0.65 0.70 0.71 0.75 0.83 1.02 1.13 1.18 1.20 1.23 1.31 1.39 1.46 1.44 1.40 1.39 1.37 1.35 1.31 1.28 1.27 1.25 1.29 1.36 1.41 1.48 1.44 1.42 1.43 1.43 1.38 1.40 1.66 1.77 1.79 1.69 1.54 1.56 1.50
0.48 0.54 0.61 0.64 0.65 0.72 0.79 0.80 0.86 0.97 1.04 1.10 1.13 1.14 1.17 1.23 1.32 1.37 1.34 1.30 1.31 1.30 1.28 1.26 1.28 1.26 1.27 1.29 1.32 1.41 1.48 1.49 1.46 1.37 1.26 1.32 1.60 1.62 1.61 1.55 1.56 1.69 1.62
0.48 0.54 0.65 0.71 0.71 0.73 0.80 0.86 0.85 0.86 0.92 1.00 1.06 1.05 1.02 1.05 1.12 1.20 1.24 1.27 1.29 1.29 1.28 1.27 1.29 1.27 1.24 1.29 1.38 1.39 1.49 1.51 1.39 1.34 1.45 1.50 1.49 1.43 1.41 1.50 1.55 1.52 1.51
0.48 0.55 0.60 0.66 0.69 0.69 0.73 0.78 0.75 0.74 0.79 0.85 0.94 0.97 0.98 0.98 0.98 1.02 1.12 1.20 1.26 1.28 1.24 1.26 1.30 1.26 1.18 1.20 1.29 1.33 1.39 1.45 1.41 1.44 1.49 1.46 1.38 1.33 1.35 1.43 1.44 1.40 1.45
0.50 0.55 0.62 0.67 0.70 0.67 0.69 0.70 0.69 0.70 0.74 0.76 0.81 0.85 0.92 0.97 1.00 1.01 1.10 1.21 1.27 1.40 1.47 1.38 1.33 1.37 1.35 1.32 1.48 1.54 1.51 1.55 1.57 1.54 1.40 1.30 1.26 1.25 1.22 1.23 1.25 1.31 1.43
0.52 0.54 0.57 0.63 0.71 0.70 0.68 0.66 0.67 0.69 0.77 0.80 0.80 0.83 0.91 0.95 0.97 0.99 1.06 1.16 1.22 1.29 1.34 1.40 1.42 1.39 1.42 1.46 1.55 1.61 1.67 1.71 1.68 1.63 1.47 1.30 1.19 1.14 1.10 1.13 1.18 1.22 1.32